STARLINK-3767, 52376

Orbit data source: Space-Track

STARLINK-3767, 52376 is a payload satellite owned by SpaceX/Seattle (US) in LEO that was launched on Fri, 29 Apr 2022 UTC via an FALCON 9 launch vehicle from the Air Force Eastern Test Range (AFETR). Payload-class satellites include a variety of spacecraft equipped with specific instruments for various scientific and technological missions. These include communications satellites like Starlink; space stations such as the ISS; scientific satellites like the Hubble; Earth observation satellites from companies like Planet Labs, Umbra, and HawkEye 360; GPS; miniature CubeSats for education and research; and military/defense satellites.

Loading next visibility...
Identifier
52376, 2022-045AX
Orbit
LEO
Country
Flag of USUS
Related business
Manufacturer
SpaceX/Seattle
Mission
Operational Commercial Communications
Bus & Motor
STARLINK, Unknown motor
Mass
297 kg wet, ~275 kg dry
Launch date (UTC)
2022-04-29 (4 years ago)
Launch vehicle
FALCON 9
Launch site
Air Force Eastern Test Range (AFETR)
Object type
Payload
Rocket body
Debris
Shape & HBR
Box + 1 Pan, 10.1 m
Radar Cross Section
11.087 m², Large (>1 m²)

Expand to show TLE details & history
Last TLE update: 22 hours ago

TLE from 22 hours ago
0 STARLINK-3767
1 52376U 22045AX  25350.01759653  .00000303  00000-0  37159-4 0  9992
2 52376  53.2158 204.7389 0001474  86.3313 273.7848 15.08841108203293
Epoch: 2025-12-16T00:25Z
TLE epoch observation values (Epoch: 2025-12-16T00:25:20.340Z)
Latitude
0.00002°
Longitude
113.49632°
Altitude
540.57 km
Speed
7.593 km/s
True Right ascension
13h 38m 57s
True Declination
0° 00' 00"
Sunlit
Object was in daylight at epoch
Visualization orbit readout
Latitude
Unknown
Longitude
Unknown
Altitude
Unknown
Speed
Unknown
Apparent Right ascension
Unknown
Apparent Declination
Unknown
Sunlit
N/A
Visualization observer readout
Local Sidereal Time
21:37:04
Azimuth
Unknown
Elevation
Unknown
Doppler factor
Unknown
Orbital elements
Apogee altitude
541.005 km
Perigee altitude
538.965 km
Semi-major axis
6,918.122 km
Eccentricity
0.00015
Inclination
53.2158°
RAAN
204.7389°
Arg. of periapsis
86.3313°
True anomaly
273.76795°
Mean anomaly
273.7848°
Eccentric anomaly
273.77637°
Mean motion
3.77191 °/min
Orbital period
95.44 mins
BSTAR
0.000037159
Loading maneuver chart data...
Computing Atmospheric mass density...
Loading historical data...
Loading historical data...
Loading historical data...
Loading historical data...
Loading historical data...
Loading historical data...
Loading historical data...

Documentation

Showing up to 5 results
|